When you browse on this site, cookies collect data to enhance your experience and personalize the content and advertising you see.
Visit our Privacy Policy to learn more. By continuing to use the site, you agree to this use of cookies and data.
  • In United Kingdom
  • List of Countries
  • For 7 days
  • Water Temperature
  • Weather Map
  • Weather Widgets
  • user-avatar
    Login

    Hourly Weather Peshchera

    Today, 13 December, Friday

    Time Temperature Precipitation Wind Pressure Humidity
    00:00 +2°C° 0 mm 3 mps 713 mmHg 95%
    01:00 +2°C° 0 mm 3 mps 712 mmHg 94%
    02:00 +2°C° 0 mm 1 mps 711 mmHg 85%
    03:00 +1°C° 0 mm 2 mps 711 mmHg 89%
    04:00 0°C° 0 mm 3 mps 710 mmHg 88%
    05:00 +1°C° 0 mm 3 mps 710 mmHg 86%
    06:00 +1°C° 0 mm 3 mps 710 mmHg 87%
    07:00 0°C° 0 mm 4 mps 710 mmHg 88%
    08:00 0°C° 0 mm 5 mps 709 mmHg 90%
    09:00 0°C° 0 mm 5 mps 709 mmHg 92%
    10:00 +1°C° 0 mm 5 mps 709 mmHg 95%
    11:00 +1°C° 0 mm 5 mps 709 mmHg 100%
    12:00 +2°C° 0.1 mm 5 mps 708 mmHg 100%
    13:00 +2°C° 0 mm 5 mps 708 mmHg 98%
    14:00 +3°C° 0 mm 5 mps 707 mmHg 97%
    15:00 +3°C° 0 mm 5 mps 707 mmHg 97%
    16:00 +3°C° 0 mm 5 mps 706 mmHg 98%
    17:00 +4°C° 0 mm 4 mps 706 mmHg 98%
    18:00 +3°C° 0 mm 4 mps 706 mmHg 97%
    19:00 +3°C° 0 mm 4 mps 706 mmHg 97%
    20:00 +3°C° 0 mm 3 mps 706 mmHg 97%
    21:00 +3°C° 0 mm 4 mps 706 mmHg 97%
    22:00 +3°C° 0 mm 4 mps 706 mmHg 96%
    23:00 +1°C° 0 mm 4 mps 706 mmHg 95%

    Tomorrow, 14 December, Saturday

    Time Temperature Precipitation Wind Pressure Humidity
    00:00 +2°C° 0 mm 3 mps 706 mmHg 94%
    01:00 +2°C° 0 mm 3 mps 707 mmHg 93%
    02:00 +2°C° 0 mm 3 mps 707 mmHg 93%
    03:00 +1°C° 0 mm 4 mps 707 mmHg 92%
    04:00 +1°C° 0 mm 4 mps 706 mmHg 92%
    05:00 +1°C° 0 mm 4 mps 706 mmHg 92%
    06:00 +1°C° 0 mm 4 mps 706 mmHg 92%
    07:00 +2°C° 0 mm 3 mps 707 mmHg 91%
    08:00 +2°C° 0 mm 3 mps 707 mmHg 90%
    09:00 +2°C° 0 mm 3 mps 708 mmHg 90%
    10:00 +3°C° 0 mm 4 mps 708 mmHg 90%
    11:00 +4°C° 0 mm 3 mps 709 mmHg 91%
    12:00 +6°C° 0 mm 4 mps 710 mmHg 91%
    13:00 +7°C° 0 mm 3 mps 710 mmHg 92%
    14:00 +7°C° 0 mm 4 mps 711 mmHg 92%
    15:00 +8°C° 0 mm 3 mps 711 mmHg 94%
    16:00 +7°C° 0 mm 2 mps 711 mmHg 97%
    17:00 +6°C° 0 mm 2 mps 712 mmHg 98%
    18:00 +7°C° 0 mm 1 mps 713 mmHg 96%
    19:00 +7°C° 0.2 mm 1 mps 713 mmHg 100%
    20:00 +5°C° 0 mm 2 mps 713 mmHg 100%
    21:00 +5°C° 0.5 mm 2 mps 713 mmHg 100%
    22:00 +4°C° 1.8 mm 3 mps 714 mmHg 100%
    23:00 +2°C° 0.2 mm 6 mps 715 mmHg 100%

    Day after tomorrow, 15 December, Sunday

    Time Temperature Precipitation Wind Pressure Humidity
    00:00 +2°C° 0.6 mm 5 mps 716 mmHg 100%
    01:00 +1°C° 0.4 mm 4 mps 717 mmHg 100%
    02:00 +1°C° 0.1 mm 4 mps 718 mmHg 100%
    03:00 0°C° 0 mm 4 mps 718 mmHg 100%
    04:00 +1°C° 0 mm 3 mps 718 mmHg 100%
    05:00 +2°C° 0 mm 2 mps 719 mmHg 100%
    06:00 +3°C° 0 mm 1 mps 719 mmHg 100%
    07:00 +3°C° 0 mm 1 mps 720 mmHg 100%
    08:00 +2°C° 0 mm 2 mps 720 mmHg 100%
    09:00 +1°C° 0 mm 3 mps 721 mmHg 100%
    10:00 +1°C° 0 mm 3 mps 721 mmHg 99%
    11:00 +2°C° 0 mm 3 mps 722 mmHg 98%
    12:00 +3°C° 0 mm 3 mps 722 mmHg 98%
    13:00 +4°C° 0 mm 2 mps 723 mmHg 96%
    14:00 +5°C° 0 mm 2 mps 723 mmHg 94%
    15:00 +3°C° 0 mm 3 mps 723 mmHg 95%
    16:00 +3°C° 0 mm 3 mps 723 mmHg 98%
    17:00 +3°C° 0 mm 2 mps 723 mmHg 99%
    18:00 +3°C° 0 mm 2 mps 723 mmHg 99%
    19:00 +2°C° 0 mm 3 mps 723 mmHg 95%
    20:00 +2°C° 0 mm 3 mps 723 mmHg 89%
    21:00 +2°C° 0 mm 3 mps 723 mmHg 87%
    22:00 0°C° 0 mm 4 mps 723 mmHg 86%
    23:00 +1°C° 0 mm 4 mps 723 mmHg 84%

    16 December, Monday

    Time Temperature Precipitation Wind Pressure Humidity
    00:00 +2°C° 0 mm 3 mps 724 mmHg 81%
    01:00 +2°C° 0 mm 3 mps 724 mmHg 82%
    02:00 +2°C° 0 mm 3 mps 724 mmHg 83%
    03:00 +2°C° 0 mm 3 mps 724 mmHg 82%
    04:00 +2°C° 0 mm 3 mps 724 mmHg 82%
    05:00 +3°C° 0 mm 2 mps 724 mmHg 83%
    06:00 +3°C° 0 mm 2 mps 724 mmHg 85%
    07:00 +3°C° 0 mm 2 mps 724 mmHg 84%
    08:00 +3°C° 0 mm 2 mps 725 mmHg 85%
    09:00 +3°C° 0 mm 2 mps 725 mmHg 88%
    10:00 +3°C° 0 mm 2 mps 725 mmHg 91%
    11:00 +3°C° 0 mm 3 mps 726 mmHg 92%
    12:00 +4°C° 0 mm 3 mps 726 mmHg 94%
    13:00 +6°C° 0 mm 2 mps 725 mmHg 95%
    14:00 +7°C° 0 mm 2 mps 725 mmHg 96%
    15:00 +8°C° 0 mm 1 mps 725 mmHg 97%
    16:00 +8°C° 0 mm 1 mps 725 mmHg 98%
    17:00 +7°C° 0 mm 1 mps 725 mmHg 97%
    18:00 +6°C° 0 mm 2 mps 725 mmHg 98%
    19:00 +5°C° 0 mm 2 mps 725 mmHg 100%
    20:00 +5°C° 0 mm 2 mps 725 mmHg 97%
    21:00 +5°C° 0 mm 2 mps 725 mmHg 95%
    22:00 +3°C° 0 mm 3 mps 725 mmHg 93%
    23:00 +3°C° 0 mm 3 mps 725 mmHg 89%

    17 December, Tuesday

    Time Temperature Precipitation Wind Pressure Humidity
    00:00 +3°C° 0 mm 3 mps 725 mmHg 86%
    01:00 +3°C° 0 mm 3 mps 724 mmHg 83%
    02:00 +3°C° 0 mm 3 mps 724 mmHg 82%

    18 December, Wednesday

    Time Temperature Precipitation Wind Pressure Humidity
    Show more